Time,TemperatureF,DewpointF,PressureIn,WindDirection,WindDirectionDegrees,WindSpeedMPH,WindSpeedGustMPH,Humidity,HourlyPrecipIn,Conditions,Clouds,dailyrainin,SoftwareType,DateUTC
2013-06-09 00:02:00,68.0,-99.9,-100.00,SE,135,3.0,7.0,-999,0.00,,,0.00,,2013-06-09 05:02:00,
2013-06-09 00:12:00,68.0,-99.9,-100.00,SE,135,3.0,7.0,-999,0.00,,,0.00,,2013-06-09 05:12:00,
2013-06-09 00:22:00,68.0,-99.9,-100.00,SE,135,3.0,7.0,-999,0.00,,,0.00,,2013-06-09 05:22:00,
2013-06-09 00:32:00,68.0,-99.9,-100.00,SE,132,4.0,6.0,-999,0.00,,,0.00,,2013-06-09 05:32:00,
2013-06-09 00:42:00,68.0,-99.9,-100.00,SE,132,4.0,6.0,-999,0.00,,,0.00,,2013-06-09 05:42:00,
2013-06-09 00:52:00,68.0,-99.9,-100.00,SE,132,4.0,6.0,-999,0.00,,,0.00,,2013-06-09 05:52:00,
2013-06-09 01:02:00,67.0,-99.9,-100.00,SE,130,5.0,8.0,-999,0.00,,,0.00,,2013-06-09 06:02:00,
2013-06-09 01:12:00,67.0,-99.9,-100.00,SE,130,5.0,8.0,-999,0.00,,,0.00,,2013-06-09 06:12:00,
2013-06-09 01:22:00,67.0,-99.9,-100.00,SE,130,5.0,8.0,-999,0.00,,,0.00,,2013-06-09 06:22:00,
2013-06-09 01:32:00,67.0,-99.9,-100.00,SE,135,8.0,13.0,-999,0.00,,,0.00,,2013-06-09 06:32:00,
2013-06-09 01:42:00,67.0,-99.9,-100.00,SE,135,8.0,13.0,-999,0.00,,,0.00,,2013-06-09 06:42:00,
2013-06-09 01:52:00,67.0,-99.9,-100.00,SE,135,8.0,13.0,-999,0.00,,,0.00,,2013-06-09 06:52:00,
2013-06-09 02:02:00,67.0,-99.9,-100.00,SE,134,6.0,10.0,-999,0.00,,,0.00,,2013-06-09 07:02:00,
2013-06-09 02:12:00,67.0,-99.9,-100.00,SE,134,6.0,10.0,-999,0.00,,,0.00,,2013-06-09 07:12:00,
2013-06-09 02:22:00,67.0,-99.9,-100.00,SE,134,6.0,10.0,-999,0.00,,,0.00,,2013-06-09 07:22:00,
2013-06-09 02:32:00,66.0,-99.9,-100.00,SE,132,8.0,14.0,-999,0.00,,,0.00,,2013-06-09 07:32:00,
2013-06-09 02:42:00,66.0,-99.9,-100.00,SE,132,8.0,14.0,-999,0.00,,,0.00,,2013-06-09 07:42:00,
2013-06-09 02:53:00,66.0,-99.9,-100.00,SE,132,8.0,14.0,-999,0.00,,,0.00,,2013-06-09 07:53:00,
2013-06-09 03:02:00,65.0,-99.9,-100.00,ESE,122,4.0,6.0,-999,0.00,,,0.00,,2013-06-09 08:02:00,
2013-06-09 03:12:00,65.0,-99.9,-100.00,ESE,122,4.0,6.0,-999,0.00,,,0.00,,2013-06-09 08:12:00,
2013-06-09 03:22:00,65.0,-99.9,-100.00,ESE,122,4.0,6.0,-999,0.00,,,0.00,,2013-06-09 08:22:00,
2013-06-09 03:32:00,65.0,-99.9,-100.00,SE,127,6.0,11.0,-999,0.00,,,0.00,,2013-06-09 08:32:00,
2013-06-09 03:42:00,65.0,-99.9,-100.00,SE,127,6.0,11.0,-999,0.00,,,0.00,,2013-06-09 08:42:00,
2013-06-09 03:53:00,65.0,-99.9,-100.00,SE,134,5.0,9.0,-999,0.00,,,0.00,,2013-06-09 08:53:00,
2013-06-09 04:02:00,65.0,-99.9,-100.00,SE,134,5.0,9.0,-999,0.00,,,0.00,,2013-06-09 09:02:00,
2013-06-09 04:12:00,65.0,-99.9,-100.00,SE,134,5.0,9.0,-999,0.00,,,0.00,,2013-06-09 09:12:00,
2013-06-09 04:22:00,65.0,-99.9,-100.00,SE,134,5.0,9.0,-999,0.00,,,0.00,,2013-06-09 09:22:00,
2013-06-09 04:33:00,64.0,-99.9,-100.00,ESE,117,5.0,9.0,-999,0.00,,,0.00,,2013-06-09 09:33:00,
2013-06-09 04:43:00,64.0,-99.9,-100.00,ESE,117,5.0,9.0,-999,0.00,,,0.00,,2013-06-09 09:43:00,
2013-06-09 04:53:00,64.0,-99.9,-100.00,ESE,117,5.0,9.0,-999,0.00,,,0.00,,2013-06-09 09:53:00,
2013-06-09 05:03:00,64.0,-99.9,-100.00,SE,125,5.0,7.0,-999,0.00,,,0.00,,2013-06-09 10:03:00,
2013-06-09 05:13:00,64.0,-99.9,-100.00,SE,125,5.0,7.0,-999,0.00,,,0.00,,2013-06-09 10:13:00,
2013-06-09 05:23:00,64.0,-99.9,-100.00,SE,125,5.0,7.0,-999,0.00,,,0.00,,2013-06-09 10:23:00,
2013-06-09 05:30:00,63.0,-99.9,-100.00,SE,144,6.0,9.0,-999,0.00,,,0.00,,2013-06-09 10:30:00,
2013-06-09 05:33:00,63.0,-99.9,-100.00,SE,134,5.0,8.0,-999,0.00,,,0.00,,2013-06-09 10:33:00,
2013-06-09 05:43:00,63.0,-99.9,-100.00,SE,134,5.0,8.0,-999,0.00,,,0.00,,2013-06-09 10:43:00,
2013-06-09 05:52:00,63.0,-99.9,-100.00,SE,144,6.0,9.0,-999,0.00,,,0.00,,2013-06-09 10:52:00,
2013-06-09 06:02:00,63.0,-99.9,-100.00,SE,144,6.0,9.0,-999,0.00,,,0.00,,2013-06-09 11:02:00,
2013-06-09 06:12:00,63.0,-99.9,-100.00,SE,144,6.0,9.0,-999,0.00,,,0.00,,2013-06-09 11:12:00,
2013-06-09 06:22:00,63.0,-99.9,-100.00,SE,144,6.0,9.0,-999,0.00,,,0.00,,2013-06-09 11:22:00,
2013-06-09 06:53:00,63.0,-99.9,-100.00,SE,126,6.0,8.0,-999,0.00,,,0.00,,2013-06-09 11:53:00,
2013-06-09 07:03:00,63.0,-99.9,-100.00,SE,126,6.0,8.0,-999,0.00,,,0.00,,2013-06-09 12:03:00,
2013-06-09 07:12:00,63.0,-99.9,-100.00,SE,126,6.0,8.0,-999,0.00,,,0.00,,2013-06-09 12:12:00,
2013-06-09 07:22:00,63.0,-99.9,-100.00,SE,126,6.0,8.0,-999,0.00,,,0.00,,2013-06-09 12:22:00,
2013-06-09 07:32:00,64.0,-99.9,-100.00,SSE,149,7.0,9.0,-999,0.00,,,0.00,,2013-06-09 12:32:00,
2013-06-09 07:42:00,64.0,-99.9,-100.00,SSE,149,7.0,9.0,-999,0.00,,,0.00,,2013-06-09 12:42:00,
2013-06-09 07:53:00,65.0,-99.9,-100.00,SE,136,5.0,7.0,-999,0.00,,,0.00,,2013-06-09 12:53:00,
2013-06-09 08:02:00,65.0,-99.9,-100.00,SE,136,5.0,7.0,-999,0.00,,,0.00,,2013-06-09 13:02:00,
2013-06-09 08:13:00,65.0,-99.9,-100.00,SE,136,5.0,7.0,-999,0.00,,,0.00,,2013-06-09 13:13:00,
2013-06-09 08:23:00,65.0,-99.9,-100.00,SE,136,5.0,7.0,-999,0.00,,,0.00,,2013-06-09 13:23:00,
2013-06-09 08:30:00,67.0,-99.9,-100.00,SE,142,9.0,14.0,-999,0.00,,,0.00,,2013-06-09 13:30:00,
2013-06-09 08:32:00,67.0,-99.9,-100.00,SE,138,6.0,9.0,-999,0.00,,,0.00,,2013-06-09 13:32:00,
2013-06-09 08:43:00,67.0,-99.9,-100.00,SE,138,6.0,9.0,-999,0.00,,,0.00,,2013-06-09 13:43:00,
2013-06-09 08:52:00,67.0,-99.9,-100.00,SE,138,6.0,9.0,-999,0.00,,,0.00,,2013-06-09 13:52:00,
2013-06-09 09:02:00,67.0,-99.9,-100.00,SE,142,9.0,14.0,-999,0.00,,,0.00,,2013-06-09 14:02:00,
2013-06-09 09:12:00,67.0,-99.9,-100.00,SE,142,9.0,14.0,-999,0.00,,,0.00,,2013-06-09 14:12:00,
2013-06-09 09:22:00,67.0,-99.9,-100.00,SE,142,9.0,14.0,-999,0.00,,,0.00,,2013-06-09 14:22:00,
2013-06-09 10:02:00,71.0,-99.9,-100.00,SE,146,10.0,17.0,-999,0.00,,,0.00,,2013-06-09 15:02:00,
2013-06-09 10:12:00,71.0,-99.9,-100.00,SE,146,10.0,17.0,-999,0.00,,,0.00,,2013-06-09 15:12:00,
2013-06-09 10:22:00,71.0,-99.9,-100.00,SE,146,10.0,17.0,-999,0.00,,,0.00,,2013-06-09 15:22:00,
2013-06-09 10:33:00,71.0,-99.9,-100.00,SSE,159,9.0,12.0,-999,0.00,,,0.00,,2013-06-09 15:33:00,
2013-06-09 10:44:00,71.0,-99.9,-100.00,SSE,159,9.0,12.0,-999,0.00,,,0.00,,2013-06-09 15:44:00,
2013-06-09 10:53:00,71.0,-99.9,-100.00,SSE,159,9.0,12.0,-999,0.00,,,0.00,,2013-06-09 15:53:00,
2013-06-09 11:03:00,72.0,-99.9,-100.00,SSE,156,8.0,13.0,-999,0.00,,,0.00,,2013-06-09 16:03:00,
2013-06-09 11:13:00,72.0,-99.9,-100.00,SSE,156,8.0,13.0,-999,0.00,,,0.00,,2013-06-09 16:13:00,
2013-06-09 11:23:00,72.0,-99.9,-100.00,SSE,156,8.0,13.0,-999,0.00,,,0.00,,2013-06-09 16:23:00,
2013-06-09 11:33:00,75.0,-99.9,-100.00,SSE,157,8.0,14.0,-999,0.00,,,0.00,,2013-06-09 16:33:00,
2013-06-09 11:43:00,75.0,-99.9,-100.00,SSE,157,8.0,14.0,-999,0.00,,,0.00,,2013-06-09 16:43:00,
2013-06-09 11:53:00,75.0,-99.9,-100.00,SSE,157,8.0,14.0,-999,0.00,,,0.00,,2013-06-09 16:53:00,
2013-06-09 12:00:00,74.0,-99.9,-100.00,SSE,153,3.0,9.0,-999,0.00,,,0.00,,2013-06-09 17:00:00,
2013-06-09 12:03:00,73.0,-99.9,-100.00,SSE,156,9.0,13.0,-999,0.00,,,0.00,,2013-06-09 17:03:00,
2013-06-09 12:12:00,73.0,-99.9,-100.00,SSE,156,9.0,13.0,-999,0.00,,,0.00,,2013-06-09 17:12:00,
2013-06-09 12:22:00,73.0,-99.9,-100.00,SSE,156,9.0,13.0,-999,0.00,,,0.00,,2013-06-09 17:22:00,
2013-06-09 12:32:00,74.0,-99.9,-100.00,SSE,153,3.0,9.0,-999,0.00,,,0.00,,2013-06-09 17:32:00,
2013-06-09 12:42:00,74.0,-99.9,-100.00,SSE,153,3.0,9.0,-999,0.00,,,0.00,,2013-06-09 17:42:00,
2013-06-09 12:52:00,74.0,-99.9,-100.00,SSE,153,3.0,9.0,-999,0.00,,,0.00,,2013-06-09 17:52:00,
2013-06-09 13:00:00,74.0,-99.9,-100.00,South,174,4.0,8.0,-999,0.00,,,0.00,,2013-06-09 18:00:00,
2013-06-09 13:33:00,74.0,-99.9,-100.00,South,174,4.0,8.0,-999,0.00,,,0.00,,2013-06-09 18:33:00,
2013-06-09 13:42:00,74.0,-99.9,-100.00,South,174,4.0,8.0,-999,0.00,,,0.00,,2013-06-09 18:42:00,
2013-06-09 13:52:00,74.0,-99.9,-100.00,South,174,4.0,8.0,-999,0.00,,,0.00,,2013-06-09 18:52:00,
2013-06-09 14:32:00,69.0,-99.9,-100.00,SSE,153,5.0,8.0,-999,0.00,,,0.00,,2013-06-09 19:32:00,
2013-06-09 14:43:00,69.0,-99.9,-100.00,SSE,153,5.0,8.0,-999,0.00,,,0.00,,2013-06-09 19:43:00,
2013-06-09 14:52:00,70.0,-99.9,-100.00,SSE,151,2.0,5.0,-999,0.00,,,0.00,,2013-06-09 19:52:00,
2013-06-09 15:03:00,70.0,-99.9,-100.00,SSE,151,2.0,5.0,-999,0.00,,,0.00,,2013-06-09 20:03:00,
2013-06-09 15:12:00,70.0,-99.9,-100.00,SSE,151,2.0,5.0,-999,0.00,,,0.00,,2013-06-09 20:12:00,
2013-06-09 15:22:00,70.0,-99.9,-100.00,SSE,151,2.0,5.0,-999,0.00,,,0.00,,2013-06-09 20:22:00,
2013-06-09 15:32:00,67.0,-99.9,-100.00,SW,226,1.0,2.0,-999,0.03,,,0.03,,2013-06-09 20:32:00,
2013-06-09 15:42:00,67.0,-99.9,-100.00,SW,226,1.0,2.0,-999,0.03,,,0.03,,2013-06-09 20:42:00,
2013-06-09 15:53:00,68.0,-99.9,-100.00,SSE,149,3.0,7.0,-999,0.03,,,0.03,,2013-06-09 20:53:00,
2013-06-09 16:03:00,68.0,-99.9,-100.00,SSE,149,3.0,7.0,-999,0.03,,,0.03,,2013-06-09 21:03:00,
2013-06-09 16:12:00,68.0,-99.9,-100.00,SSE,149,3.0,7.0,-999,0.03,,,0.03,,2013-06-09 21:12:00,
2013-06-09 16:22:00,68.0,-99.9,-100.00,SSE,149,3.0,7.0,-999,0.03,,,0.03,,2013-06-09 21:22:00,
2013-06-09 16:33:00,68.0,-99.9,-100.00,SW,219,1.0,2.0,-999,0.00,,,0.03,,2013-06-09 21:33:00,
2013-06-09 16:44:00,68.0,-99.9,-100.00,SW,219,1.0,2.0,-999,0.00,,,0.03,,2013-06-09 21:44:00,
2013-06-09 16:53:00,68.0,-99.9,-100.00,South,177,1.0,2.0,-999,0.00,,,0.03,,2013-06-09 21:53:00,
2013-06-09 17:02:00,68.0,-99.9,-100.00,South,177,1.0,2.0,-999,0.00,,,0.03,,2013-06-09 22:02:00,
2013-06-09 17:13:00,68.0,-99.9,-100.00,South,177,1.0,2.0,-999,0.00,,,0.03,,2013-06-09 22:13:00,
2013-06-09 17:23:00,68.0,-99.9,-100.00,South,177,1.0,2.0,-999,0.00,,,0.03,,2013-06-09 22:23:00,
2013-06-09 17:30:00,66.0,-99.9,-100.00,SE,144,10.0,14.0,-999,0.04,,,0.07,,2013-06-09 22:30:00,
2013-06-09 17:33:00,68.0,-99.9,-100.00,ESE,106,2.0,3.0,-999,0.00,,,0.03,,2013-06-09 22:33:00,
2013-06-09 17:42:00,68.0,-99.9,-100.00,ESE,106,2.0,3.0,-999,0.00,,,0.03,,2013-06-09 22:42:00,
2013-06-09 17:52:00,68.0,-99.9,-100.00,ESE,106,2.0,3.0,-999,0.00,,,0.03,,2013-06-09 22:52:00,
2013-06-09 18:02:00,66.0,-99.9,-100.00,SE,144,10.0,14.0,-999,0.04,,,0.07,,2013-06-09 23:02:00,
2013-06-09 18:12:00,66.0,-99.9,-100.00,SE,144,10.0,14.0,-999,0.04,,,0.07,,2013-06-09 23:12:00,
2013-06-09 18:22:00,66.0,-99.9,-100.00,SE,144,10.0,14.0,-999,0.04,,,0.07,,2013-06-09 23:22:00,
2013-06-09 18:52:00,64.0,-99.9,-100.00,ESE,111,2.0,4.0,-999,0.03,,,0.10,,2013-06-09 23:52:00,
2013-06-09 19:02:00,64.0,-99.9,-100.00,ESE,111,2.0,4.0,-999,0.03,,,0.10,,2013-06-10 00:02:00,
2013-06-09 19:13:00,64.0,-99.9,-100.00,ESE,111,2.0,4.0,-999,0.03,,,0.10,,2013-06-10 00:13:00,
2013-06-09 19:22:00,64.0,-99.9,-100.00,ESE,111,2.0,4.0,-999,0.03,,,0.10,,2013-06-10 00:22:00,
2013-06-09 19:32:00,64.0,-99.9,-100.00,ESE,102,1.0,2.0,-999,0.01,,,0.10,,2013-06-10 00:32:00,
2013-06-09 19:42:00,64.0,-99.9,-100.00,ESE,102,1.0,2.0,-999,0.01,,,0.10,,2013-06-10 00:42:00,
2013-06-09 19:52:00,64.0,-99.9,-100.00,ESE,110,1.0,3.0,-999,0.01,,,0.11,,2013-06-10 00:52:00,
2013-06-09 20:03:00,64.0,-99.9,-100.00,ESE,110,1.0,3.0,-999,0.01,,,0.11,,2013-06-10 01:03:00,
2013-06-09 20:12:00,64.0,-99.9,-100.00,ESE,110,1.0,3.0,-999,0.01,,,0.11,,2013-06-10 01:12:00,
2013-06-09 20:22:00,64.0,-99.9,-100.00,ESE,110,1.0,3.0,-999,0.01,,,0.11,,2013-06-10 01:22:00,
2013-06-09 20:32:00,64.0,-99.9,-100.00,SSE,156,2.0,5.0,-999,0.02,,,0.12,,2013-06-10 01:32:00,
2013-06-09 20:43:00,64.0,-99.9,-100.00,SSE,156,2.0,5.0,-999,0.02,,,0.12,,2013-06-10 01:43:00,
2013-06-09 20:52:00,64.0,-99.9,-100.00,SSE,156,2.0,5.0,-999,0.02,,,0.12,,2013-06-10 01:52:00,
2013-06-09 21:02:00,64.0,-99.9,-100.00,SE,144,3.0,7.0,-999,0.01,,,0.12,,2013-06-10 02:02:00,
2013-06-09 21:12:00,64.0,-99.9,-100.00,SE,144,3.0,7.0,-999,0.01,,,0.12,,2013-06-10 02:12:00,
2013-06-09 21:22:00,64.0,-99.9,-100.00,SE,144,3.0,7.0,-999,0.01,,,0.12,,2013-06-10 02:22:00,
2013-06-09 21:32:00,64.0,-99.9,-100.00,SE,140,4.0,6.0,-999,0.01,,,0.13,,2013-06-10 02:32:00,
2013-06-09 21:42:00,64.0,-99.9,-100.00,SE,140,4.0,6.0,-999,0.01,,,0.13,,2013-06-10 02:42:00,
2013-06-09 21:52:00,64.0,-99.9,-100.00,SE,140,4.0,6.0,-999,0.01,,,0.13,,2013-06-10 02:52:00,
2013-06-09 22:02:00,64.0,-99.9,-100.00,East,93,1.0,2.0,-999,0.01,,,0.13,,2013-06-10 03:02:00,
2013-06-09 22:12:00,64.0,-99.9,-100.00,East,93,1.0,2.0,-999,0.01,,,0.13,,2013-06-10 03:12:00,
2013-06-09 22:22:00,64.0,-99.9,-100.00,East,93,1.0,2.0,-999,0.01,,,0.13,,2013-06-10 03:22:00,
2013-06-09 22:33:00,63.0,-99.9,-100.00,SE,137,0.0,1.0,-999,0.00,,,0.13,,2013-06-10 03:33:00,
2013-06-09 22:43:00,63.0,-99.9,-100.00,SE,137,0.0,1.0,-999,0.00,,,0.13,,2013-06-10 03:43:00,
2013-06-09 22:53:00,63.0,-99.9,-100.00,SE,137,0.0,1.0,-999,0.00,,,0.13,,2013-06-10 03:53:00,
2013-06-09 23:03:00,63.0,-99.9,-100.00,NE,55,0.0,2.0,-999,0.00,,,0.13,,2013-06-10 04:03:00,
2013-06-09 23:13:00,63.0,-99.9,-100.00,NE,55,0.0,2.0,-999,0.00,,,0.13,,2013-06-10 04:13:00,
2013-06-09 23:23:00,63.0,-99.9,-100.00,NE,55,0.0,2.0,-999,0.00,,,0.13,,2013-06-10 04:23:00,
2013-06-09 23:33:00,63.0,-99.9,-100.00,ESE,108,1.0,2.0,-999,0.00,,,0.13,,2013-06-10 04:33:00,
2013-06-09 23:42:00,63.0,-99.9,-100.00,ESE,108,1.0,2.0,-999,0.00,,,0.13,,2013-06-10 04:42:00,
2013-06-09 23:53:00,63.0,-99.9,-100.00,West,270,0.0,0.0,-999,0.00,,,0.13,,2013-06-10 04:53:00,